Temperature
0 1 1 2 2 2 2 2 2 3 3 4 3 2 2 2 2 2 2 2 2 3 3 3 4 4 4 4 4 5 5 5 5 5 5 5 5 5 5 5 5 5 5 5
0 1 1 1 1 2 2 2 2 2 2 2 2 2 2 1 1 1 1 1 2 2 2 3 3 3 3 4 4 4 4 4 4 4 4 4 4 4 4 4 4 4 4 4
-0 -0 0 0 1 1 1 1 2 2 2 1 1 1 1 1 1 1 1 1 1 2 2 2 2 3 3 3 3 3 4 4 4 4 3 3 3 3 3 3 3 3 4 4
-1 -1 -1 0 0 0 1 0 0 1 1 1 1 1 1 1 1 0 1 1 1 1 1 1 2 2 2 2 3 3 3 3 3 3 3 3 3 3 3 3 3 3 3 3
-2 -2 -1 -0 0 -0 -0 -0 -0 -0 0 0 0 0 -0 1 1 0 0 1 1 1 1 1 1 1 1 2 2 2 2 2 2 2 2 2 2 2 2 2 2 2 2 2
-3 -2 -1 -0 -0 -0 0 -0 -1 -1 -1 -1 -1 -1 -1 0 0 0 0 0 0 0 0 0 1 1 1 1 1 1 1 1 1 1 1 1 1 1 1 1 1 1 1 1
-3 -3 -2 -1 -1 0 -0 -0 -0 -0 -1 -1 -1 -1 -0 -0 -0 -0 -0 -0 -0 -0 -0 -0 -0 -0 0 0 1 1 1 1 1 1 1 1 1 1 1 1 1 1 1 1
-4 -3 -2 -1 -1 -1 -1 -1 -1 -0 -0 -1 -1 -1 -1 -1 -1 -1 -1 -1 -1 -1 -1 -1 -1 -1 -0 -0 -0 -0 -0 -0 0 0 -0 -0 -0 -0 -0 -0 -0 -0 -0 -0
-3 -2 -2 -1 -1 -0 -0 -1 -1 -1 -0 -1 -1 -1 -2 -2 -2 -2 -2 -2 -2 -2 -2 -2 -2 -1 -1 -1 -1 -1 -1 -1 -1 -1 -1 -1 -1 -1 -1 -1 -1 -1 -1 -1
-4 -3 -2 -2 -1 -1 -1 -1 -1 -1 -1 -1 -1 -2 -2 -2 -2 -2 -2 -2 -2 -2 -2 -2 -2 -2 -2 -2 -2 -2 -1 -1 -1 -1 -1 -2 -2 -1 -1 -1 -1 -2 -2 -2
-3 -3 -3 -2 -1 -1 -1 -1 -1 -1 -1 -2 -2 -2 -2 -3 -3 -3 -3 -2 -2 -2 -2 -2 -2 -2 -2 -2 -2 -2 -2 -2 -2 -2 -2 -2 -2 -2 -2 -2 -2 -2 -2 -2
-3 -3 -3 -2 -1 -1 -1 -2 -2 -2 -2 -2 -2 -2 -3 -3 -3 -3 -3 -3 -3 -3 -3 -3 -3 -3 -3 -3 -3 -3 -3 -3 -3 -3 -3 -3 -3 -3 -3 -3 -3 -3 -3 -3
-2 -2 -2 -2 -2 -2 -2 -2 -2 -2 -2 -3 -3 -3 -3 -3 -3 -3 -3 -3 -3 -3 -3 -3 -3 -3 -3 -3 -3 -3 -3 -3 -3 -3 -3 -3 -3 -3 -3 -3 -3 -3 -4 -4
-2 -2 -3 -3 -3 -2 -2 -2 -3 -3 -3 -3 -3 -3 -3 -4 -4 -4 -3 -3 -4 -4 -4 -4 -4 -4 -4 -4 -4 -4 -4 -4 -4 -4 -4 -4 -4 -4 -4 -4 -4 -4 -4 -4
-3 -3 -3 -3 -3 -3 -3 -3 -3 -3 -3 -4 -4 -4 -4 -4 -4 -4 -4 -4 -4 -4 -4 -4 -4 -4 -4 -4 -4 -4 -4 -4 -5 -5 -5 -5 -5 -5 -5 -5 -5 -5 -5 -5
-3 -3 -3 -3 -3 -4 -4 -4 -4 -4 -4 -4 -4 -4 -4 -4 -4 -4 -4 -4 -4 -4 -4 -4 -5 -5 -5 -5 -5 -5 -5 -5 -5 -5 -6 -6 -6 -6 -6 -6 -6 -6 -6 -6
-4 -4 -4 -4 -4 -4 -4 -4 -4 -4 -4 -4 -4 -4 -5 -5 -5 -5 -5 -5 -5 -5 -5 -5 -5 -5 -5 -5 -5 -5 -5 -5 -6 -6 -6 -6 -6 -6 -6 -6 -6 -6 -6 -6
-4 -4 -4 -4 -4 -4 -4 -4 -4 -4 -4 -4 -5 -5 -5 -5 -5 -5 -5 -5 -5 -5 -5 -5 -5 -6 -6 -6 -6 -6 -6 -6 -6 -6 -6 -7 -7 -7 -7 -7 -7 -7 -7 -7
-4 -4 -4 -4 -4 -4 -4 -4 -5 -5 -5 -5 -5 -5 -5 -5 -5 -6 -6 -6 -6 -6 -6 -6 -6 -6 -6 -6 -6 -6 -6 -7 -7 -7 -7 -7 -7 -7 -7 -7 -7 -7 -7 -7
-4 -4 -4 -5 -5 -5 -5 -5 -5 -5 -5 -5 -5 -6 -6 -6 -6 -6 -6 -6 -6 -6 -6 -6 -6 -6 -6 -7 -7 -7 -7 -7 -7 -7 -8 -8 -8 -8 -8 -8 -8 -8 -8 -8
-4 -4 -5 -5 -5 -5 -5 -5 -5 -5 -5 -5 -6 -6 -6 -6 -6 -7 -7 -6 -6 -7 -7 -7 -7 -7 -7 -7 -7 -7 -8 -8 -8 -8 -8 -8 -8 -8 -8 -8 -8 -8 -8 -8
-4 -5 -5 -5 -5 -5 -5 -5 -6 -6 -6 -6 -6 -6 -6 -6 -7 -7 -7 -7 -7 -7 -7 -7 -7 -7 -8 -8 -8 -8 -8 -8 -8 -8 -9 -9 -9 -9 -9 -9 -9 -9 -9 -9
-5 -5 -5 -5 -5 -5 -6 -6 -6 -6 -6 -6 -6 -6 -7 -7 -7 -7 -7 -7 -7 -7 -7 -7 -8 -8 -8 -8 -8 -9 -9 -9 -9 -9 -9 -9 -9 -9 -9 -9 -9 -9 -9 -9
-5 -5 -5 -5 -5 -6 -6 -6 -6 -6 -6 -6 -7 -7 -7 -7 -7 -7 -7 -8 -8 -8 -8 -8 -8 -8 -9 -9 -9 -9 -9 -9 -9 -9 -9 -9 -9 -9 -9 -9 -9 -9 -9 -9
-5 -5 -5 -6 -6 -6 -6 -6 -7 -7 -7 -7 -7 -7 -7 -7 -7 -7 -8 -8 -8 -8 -8 -8 -8 -9 -9 -9 -9 -9 -9 -9 -9 -9 -10 -9 -9 -9 -9 -9 -9 -9 -9 -9
-6 -6 -6 -6 -6 -6 -6 -7 -7 -7 -7 -7 -7 -7 -7 -8 -8 -8 -8 -8 -8 -9 -9 -9 -9 -9 -9 -9 -9 -9 -9 -9 -9 -10 -10 -10 -10 -10 -9 -9 -9 -9 -9 -9
-6 -6 -6 -7 -7 -7 -7 -7 -7 -7 -7 -7 -7 -7 -8 -8 -8 -8 -8 -9 -9 -9 -9 -9 -9 -9 -9 -9 -9 -9 -9 -9 -9 -9 -10 -10 -10 -10 -10 -9 -9 -9 -9 -9
Wind_Speed
3 4 3 4 5 5 5 6 6 6 6 6 4 3 2 2 2 3 3 3 3 2 2 2 3 2 2 2 1 2 3 3 2 2 2 3 3 3 3 3 3 3 2 2
2 2 2 3 5 7 7 6 6 5 7 5 2 2 2 2 2 2 1 1 1 2 2 2 2 2 2 2 1 2 3 3 2 3 3 3 3 3 4 3 3 3 3 2
2 3 3 4 5 6 4 4 5 7 6 2 1 3 3 3 3 2 1 0 0 0 0 1 1 2 2 1 2 3 3 3 3 3 3 3 3 3 3 3 3 3 3 2
0 2 4 6 2 3 4 4 4 4 3 3 3 2 2 2 3 2 1 1 0 0 1 1 2 2 2 2 2 3 3 3 3 3 3 3 3 3 3 3 3 2 2 2
1 2 6 6 3 2 3 5 4 5 4 1 1 2 1 1 1 2 2 1 1 0 1 1 2 2 3 3 3 3 2 2 2 3 3 3 3 2 2 2 2 2 1 1
3 2 5 6 4 2 2 5 4 5 5 3 2 2 4 2 0 0 1 1 1 2 2 2 2 2 3 3 3 2 2 2 2 2 3 2 2 2 1 2 2 2 1 1
4 4 7 6 3 2 4 6 3 4 5 4 4 4 3 2 2 2 1 2 2 2 2 1 1 2 2 2 1 1 1 2 2 2 2 2 2 2 2 2 2 2 2 2
4 5 8 3 3 5 6 2 2 2 4 4 3 2 2 2 2 2 2 2 2 2 2 1 1 2 2 1 1 1 2 2 2 2 2 2 2 2 2 2 2 2 1 1
7 8 4 3 4 3 2 3 2 2 3 5 4 3 3 2 2 2 2 1 1 2 2 2 1 1 2 1 1 2 2 2 1 2 2 2 2 2 1 2 1 1 1 0
4 7 5 4 3 2 2 3 3 3 3 4 4 4 3 3 2 1 1 1 2 2 2 1 1 1 1 1 1 2 2 1 2 2 2 1 1 1 1 1 1 1 1 1
6 5 3 4 5 4 3 2 1 2 3 4 4 4 3 3 2 1 1 0 1 1 1 0 1 1 1 1 2 2 1 1 1 1 1 1 1 1 1 2 3 2 2 2
8 6 6 5 4 5 4 3 3 3 2 2 4 4 3 2 2 2 1 1 1 1 1 0 1 1 1 1 1 2 1 1 1 1 1 1 1 1 2 1 1 2 2 2
7 4 5 4 3 4 5 4 3 3 4 3 2 3 3 2 2 1 1 1 1 1 1 0 0 1 1 1 1 1 1 1 0 1 0 0 0 0 1 2 3 3 3 3
5 3 3 4 4 3 4 4 3 3 3 3 3 3 3 2 2 1 1 1 1 1 1 1 0 1 1 0 1 1 1 1 1 1 1 0 0 1 1 1 1 2 3 3
5 6 6 4 3 3 3 3 3 3 3 2 2 2 3 3 2 2 2 1 1 1 1 1 1 1 1 1 1 1 1 1 1 1 1 1 1 1 1 1 1 2 1 2
4 4 5 4 5 4 4 4 4 4 4 3 3 3 3 3 2 2 1 1 2 1 1 1 2 2 1 1 1 1 1 2 1 1 1 1 1 1 1 1 2 2 2 2
5 5 5 5 6 5 5 5 5 5 4 4 4 4 3 2 2 1 1 1 1 2 2 2 3 2 1 2 2 1 1 1 2 1 1 1 1 2 2 2 2 2 3 3
7 7 6 6 6 6 5 5 5 5 5 5 4 4 4 3 3 3 2 1 1 1 2 2 2 2 2 2 2 1 1 1 1 2 2 2 2 2 2 3 3 3 3 3
5 6 6 6 6 6 5 5 5 5 4 4 4 4 4 4 4 3 2 2 2 3 3 2 3 1 2 2 2 2 2 2 2 2 2 3 3 2 2 3 3 3 3 3
4 4 5 4 4 4 5 4 4 4 4 4 4 4 3 3 3 3 2 3 4 3 3 2 2 2 2 3 3 2 2 2 3 2 2 2 3 3 3 3 3 3 3 3
5 4 5 5 4 4 4 5 5 5 4 5 5 5 5 4 3 3 3 3 4 3 3 3 2 2 2 3 3 2 2 2 3 2 3 3 3 3 3 3 3 3 3 3
4 4 5 5 4 4 4 4 4 4 4 4 4 4 4 4 3 3 4 4 4 4 2 2 2 3 4 4 2 2 2 2 3 2 3 3 3 4 4 4 4 4 4 4
4 5 5 5 5 4 3 3 4 5 5 5 5 5 5 5 4 4 4 3 2 4 2 2 4 5 6 3 2 2 3 3 3 3 3 3 4 4 4 4 4 4 4 4
4 4 5 4 3 3 4 4 4 4 4 4 5 5 5 4 3 4 3 4 5 5 3 4 6 6 5 2 2 2 3 3 3 3 4 4 3 4 4 4 4 4 4 5
4 4 4 4 4 5 5 4 3 3 3 3 3 4 4 4 4 3 2 3 5 4 2 4 6 5 3 1 2 3 3 4 4 4 3 3 4 4 4 4 4 5 4 5
4 4 4 5 5 4 4 4 4 4 4 3 3 3 3 2 3 2 2 3 4 4 3 2 3 3 2 2 3 3 3 4 4 4 4 4 4 4 4 5 5 5 5 5
4 3 3 3 3 4 4 4 5 5 5 5 4 3 3 3 3 3 3 2 2 2 2 2 2 2 3 3 3 3 3 3 4 4 4 4 4 5 5 5 5 5 5 5
Wind_Direction
255 254 218 238 240 214 207 208 208 234 246 262 247 225 198 146 118 97 78 68 65 54 37 32 31 35 44 43 67 104 111 115 129 133 124 112 110 111 107 103 104 101 88 73
298 289 237 273 261 235 228 221 227 249 264 268 247 136 130 137 138 131 112 76 61 51 45 42 34 24 31 32 47 97 110 113 112 115 112 110 110 112 110 102 96 96 96 85
271 322 11 279 248 221 219 216 202 226 239 243 198 181 182 180 170 173 180 141 113 57 13 18 26 32 33 25 54 91 106 107 102 107 114 119 118 109 113 111 105 99 93 87
241 42 239 246 249 219 217 248 240 232 229 219 213 189 159 165 179 194 204 192 210 341 1 13 27 40 41 41 67 96 102 99 96 103 106 102 110 114 114 111 111 109 103 97
150 221 272 286 266 198 208 261 243 229 236 226 74 83 315 290 190 202 199 189 171 141 66 56 57 57 65 60 64 85 98 100 99 109 115 109 113 122 119 116 113 115 116 101
153 192 241 253 264 233 140 268 247 209 219 209 137 190 243 244 171 122 91 101 96 77 69 68 37 62 84 79 74 72 77 90 93 106 118 124 127 117 103 120 124 115 85 69
192 222 261 260 272 122 177 245 261 209 210 198 202 221 213 166 156 139 112 99 99 99 94 91 65 78 92 93 86 49 60 73 77 86 104 111 102 88 105 107 106 98 78 42
177 208 252 248 151 186 223 253 239 222 202 189 193 187 159 152 151 127 94 85 91 99 80 63 80 96 89 79 36 62 72 74 81 89 96 96 99 83 88 104 103 91 72 37
197 217 245 211 208 229 193 200 226 215 201 173 171 178 164 158 144 124 110 97 95 104 81 47 43 100 119 343 27 85 91 87 84 84 85 98 116 113 104 108 120 127 129 304
234 252 251 251 261 274 208 206 217 194 176 159 167 176 171 164 160 148 131 113 103 101 88 44 21 33 58 29 61 93 103 100 93 97 85 79 106 142 151 155 161 177 190 235
236 254 267 259 236 235 235 214 179 153 152 165 161 166 167 169 181 183 182 128 119 128 128 54 26 23 28 54 86 93 87 83 85 86 98 87 90 155 171 200 195 198 212 218
226 215 202 227 218 203 203 216 206 177 165 158 164 172 166 172 186 175 165 129 109 120 120 46 39 21 10 37 102 113 99 82 80 83 94 105 87 23 8 343 293 287 266 253
230 221 208 222 210 192 194 209 209 190 182 179 174 165 164 173 178 161 153 159 184 194 184 174 32 356 340 38 97 123 144 136 106 106 119 154 140 126 351 358 9 359 332 316
231 210 220 224 215 199 190 193 179 170 171 168 170 162 158 163 154 170 205 218 209 173 168 174 186 273 286 226 138 147 158 186 172 175 178 197 228 238 221 253 310 325 329 328
235 216 212 204 194 187 175 158 153 171 173 169 163 167 168 172 191 213 220 197 147 144 168 197 236 271 268 214 175 168 175 190 188 191 198 211 237 253 250 242 252 273 297 317
220 202 192 190 197 194 177 173 184 204 199 194 190 194 196 195 196 196 188 167 169 209 238 244 254 260 239 204 186 183 203 211 208 189 198 229 245 241 243 248 258 263 269 277
187 201 201 203 211 209 206 203 202 206 201 197 202 196 184 176 173 190 232 231 217 233 242 240 251 259 230 197 185 195 200 217 229 245 231 237 243 244 246 248 251 257 264 272
210 209 199 198 202 207 212 209 205 203 204 205 193 178 178 186 205 223 233 232 238 281 270 251 246 241 214 189 187 189 194 204 215 231 243 246 249 244 242 243 251 261 270 281
204 201 202 202 199 194 199 205 207 208 205 189 183 193 202 206 209 214 208 197 219 254 263 249 248 243 221 216 205 191 199 217 234 240 239 253 266 254 247 250 257 262 266 273
190 190 193 198 193 192 200 203 195 196 198 185 184 191 203 212 206 202 203 224 238 240 240 243 239 230 225 231 225 197 208 222 229 234 238 238 246 252 251 255 259 261 265 267
192 190 190 195 201 205 205 199 192 198 198 187 189 200 210 217 209 199 204 241 254 237 233 239 225 226 228 228 232 205 209 223 230 233 241 248 253 256 257 259 263 266 267 269
200 196 199 199 199 212 218 205 200 198 194 197 200 198 199 210 215 219 225 232 238 239 241 231 224 238 238 241 220 203 215 226 234 238 241 245 249 254 257 259 261 265 266 264
203 203 202 202 204 212 217 208 203 199 201 203 203 202 206 213 209 212 243 238 227 242 247 236 236 247 253 242 206 212 224 230 236 241 245 246 249 253 257 261 263 265 266 267
206 206 207 202 182 186 215 225 215 210 208 210 212 208 203 209 228 226 226 235 237 249 247 245 251 254 257 226 205 217 227 234 240 244 248 251 251 254 257 262 265 265 263 264
208 206 196 187 197 215 222 218 206 206 203 211 217 215 211 206 212 224 221 226 232 243 252 253 255 260 256 220 217 226 232 236 238 242 244 249 253 255 257 259 261 264 264 263
208 212 215 215 216 216 206 197 204 208 202 210 222 216 208 205 203 207 215 223 230 241 243 251 256 260 247 233 237 240 242 254 265 262 253 253 256 258 261 262 264 265 268 270
203 209 210 219 224 215 206 201 205 209 205 204 216 214 203 201 202 206 211 221 229 237 239 242 240 239 239 240 243 243 242 244 247 251 254 255 257 258 261 263 267 271 272 272
Height
1497 1494 1494 1492 1492 1491 1493 1493 1495 1490 1487 1482 1482 1481 1481 1480 1480 1480 1480 1480 1480 1480 1480 1480 1480 1481 1481 1482 1483 1484 1485 1486 1487 1489 1490 1491 1492 1493 1495 1496 1498 1499 1500 1501
1497 1492 1492 1492 1489 1488 1488 1489 1489 1487 1485 1481 1480 1480 1480 1480 1480 1480 1480 1480 1479 1479 1479 1479 1479 1480 1480 1480 1481 1482 1483 1484 1485 1486 1487 1489 1490 1491 1492 1494 1495 1496 1497 1498
1500 1497 1494 1495 1488 1487 1486 1485 1485 1484 1482 1480 1480 1480 1479 1479 1480 1479 1479 1479 1479 1479 1479 1479 1479 1479 1479 1479 1480 1480 1481 1482 1483 1484 1485 1486 1488 1489 1490 1491 1493 1493 1494 1495
1503 1502 1503 1490 1484 1483 1483 1483 1482 1480 1479 1479 1478 1478 1478 1479 1479 1479 1478 1478 1478 1478 1478 1478 1478 1478 1478 1478 1479 1479 1480 1480 1481 1482 1483 1484 1485 1487 1488 1489 1490 1491 1492 1492
1506 1507 1499 1488 1483 1483 1483 1482 1479 1478 1477 1478 1477 1478 1478 1478 1478 1477 1477 1477 1477 1477 1477 1477 1477 1477 1477 1477 1477 1477 1478 1478 1479 1480 1481 1482 1483 1484 1485 1486 1487 1488 1489 1489
1507 1505 1498 1486 1480 1479 1482 1482 1475 1475 1475 1476 1476 1479 1477 1476 1476 1476 1476 1476 1476 1475 1475 1476 1476 1476 1475 1475 1475 1476 1476 1477 1478 1479 1479 1480 1481 1482 1483 1484 1485 1485 1486 1486
1506 1505 1493 1482 1479 1479 1485 1479 1473 1471 1472 1473 1473 1474 1474 1473 1474 1474 1474 1474 1474 1474 1474 1474 1474 1474 1474 1474 1474 1475 1475 1476 1476 1477 1478 1479 1480 1481 1482 1482 1483 1483 1483 1484
1503 1503 1492 1477 1477 1479 1476 1472 1470 1470 1469 1470 1471 1471 1471 1472 1472 1472 1472 1472 1472 1472 1472 1472 1473 1473 1472 1473 1473 1474 1474 1475 1475 1476 1477 1477 1478 1479 1479 1480 1480 1481 1481 1481
1489 1484 1476 1474 1472 1471 1471 1470 1469 1468 1468 1468 1469 1469 1470 1470 1470 1470 1471 1471 1471 1471 1471 1471 1471 1471 1471 1471 1472 1472 1473 1473 1474 1475 1475 1476 1476 1477 1477 1478 1478 1478 1478 1479
1481 1475 1472 1471 1470 1469 1469 1468 1467 1467 1467 1467 1467 1467 1468 1469 1469 1469 1469 1469 1469 1469 1469 1469 1470 1470 1470 1470 1470 1471 1471 1472 1472 1473 1473 1474 1474 1475 1475 1475 1475 1476 1476 1476
1475 1470 1469 1467 1467 1467 1466 1466 1466 1465 1465 1465 1465 1466 1466 1467 1467 1468 1468 1468 1468 1468 1468 1468 1468 1469 1469 1469 1469 1469 1470 1470 1471 1471 1471 1472 1472 1472 1472 1473 1473 1473 1474 1473
1467 1463 1464 1463 1463 1464 1464 1463 1463 1463 1463 1464 1464 1464 1465 1465 1466 1467 1467 1467 1467 1467 1467 1467 1467 1467 1468 1468 1468 1468 1468 1468 1468 1469 1469 1470 1470 1470 1470 1471 1471 1471 1471 1471
1459 1459 1459 1459 1460 1461 1461 1461 1461 1461 1461 1462 1462 1463 1463 1463 1464 1465 1465 1465 1465 1465 1466 1466 1466 1466 1466 1466 1467 1466 1466 1466 1466 1467 1467 1467 1467 1467 1467 1468 1468 1468 1468 1468
1456 1457 1456 1457 1457 1458 1458 1459 1459 1459 1460 1460 1461 1461 1461 1462 1462 1463 1463 1464 1464 1464 1464 1464 1464 1464 1464 1464 1464 1464 1464 1465 1465 1465 1465 1465 1465 1465 1465 1465 1464 1465 1465 1465
1452 1453 1453 1453 1454 1454 1455 1456 1456 1457 1457 1458 1459 1459 1459 1460 1460 1461 1461 1462 1462 1462 1462 1462 1462 1462 1462 1462 1462 1462 1462 1462 1462 1462 1462 1462 1462 1462 1462 1462 1462 1462 1462 1461
1448 1449 1449 1450 1450 1451 1452 1453 1453 1453 1454 1455 1456 1456 1457 1458 1458 1458 1459 1459 1459 1459 1459 1459 1460 1460 1460 1460 1459 1459 1459 1460 1459 1459 1459 1459 1459 1459 1459 1459 1458 1458 1458 1458
1444 1445 1445 1446 1447 1448 1449 1449 1450 1450 1451 1452 1453 1454 1454 1455 1455 1456 1456 1457 1457 1457 1457 1457 1457 1457 1457 1457 1457 1457 1457 1457 1457 1456 1456 1456 1456 1456 1456 1455 1455 1455 1455 1454
1440 1441 1442 1443 1443 1444 1445 1446 1447 1447 1448 1449 1450 1451 1451 1452 1452 1452 1453 1454 1454 1454 1454 1454 1454 1454 1455 1454 1454 1454 1454 1454 1454 1453 1453 1453 1453 1452 1452 1452 1452 1451 1451 1451
1436 1437 1439 1440 1441 1441 1442 1443 1443 1444 1445 1446 1447 1447 1448 1449 1449 1450 1450 1451 1450 1450 1451 1451 1451 1451 1451 1451 1451 1451 1451 1451 1450 1450 1450 1450 1450 1449 1449 1448 1448 1447 1447 1447
1433 1434 1436 1437 1438 1438 1439 1439 1440 1441 1442 1443 1443 1444 1445 1445 1446 1447 1447 1447 1447 1447 1447 1447 1447 1447 1447 1447 1447 1447 1447 1447 1447 1447 1447 1447 1446 1446 1445 1444 1444 1444 1443 1443
1430 1431 1432 1434 1434 1435 1436 1436 1437 1438 1439 1440 1440 1440 1441 1442 1443 1443 1443 1443 1444 1444 1444 1444 1443 1443 1444 1444 1444 1444 1444 1444 1443 1443 1442 1442 1441 1441 1441 1440 1440 1440 1439 1439
1428 1429 1429 1430 1431 1432 1432 1433 1434 1434 1435 1436 1437 1437 1438 1438 1439 1439 1439 1440 1440 1440 1440 1440 1440 1440 1440 1440 1440 1440 1440 1440 1439 1439 1439 1438 1438 1437 1437 1437 1436 1436 1435 1435
1425 1426 1426 1427 1428 1428 1429 1430 1430 1431 1432 1432 1433 1434 1434 1435 1435 1436 1435 1436 1436 1436 1436 1436 1436 1436 1436 1436 1436 1436 1436 1436 1435 1435 1435 1434 1434 1434 1433 1433 1432 1432 1431 1430
1422 1422 1423 1424 1424 1425 1425 1426 1427 1427 1428 1429 1430 1430 1431 1431 1431 1432 1432 1433 1433 1433 1432 1432 1432 1432 1432 1432 1432 1432 1432 1432 1431 1431 1431 1430 1430 1430 1429 1429 1428 1427 1427 1426
1419 1419 1420 1420 1420 1420 1421 1422 1423 1423 1424 1425 1426 1427 1427 1427 1428 1428 1429 1429 1429 1429 1429 1429 1429 1429 1428 1428 1428 1428 1428 1427 1427 1427 1426 1426 1426 1425 1425 1424 1424 1423 1423 1422
1415 1415 1416 1416 1416 1417 1417 1418 1418 1419 1420 1421 1421 1422 1423 1424 1424 1424 1425 1425 1425 1425 1425 1425 1425 1425 1425 1424 1424 1424 1424 1423 1423 1423 1422 1422 1421 1421 1420 1420 1419 1419 1418 1418
1410 1411 1411 1411 1412 1413 1413 1414 1414 1415 1416 1416 1417 1418 1419 1420 1420 1420 1421 1421 1421 1421 1421 1421 1421 1421 1421 1421 1421 1420 1420 1419 1419 1418 1418 1417 1417 1416 1416 1415 1415 1414 1414 1413